Location: Doughton Park
(36.4224°N, 81.1835°W)
Time: 21:41:38
(UTC-04:00)

ISS - All Passes

Search period start: 31 July 2014 00:00
Search period end: 10 August 2014 00:00
Orbit: 411 x 419 km, 51.6° (Epoch: 31 July)

Date Brightness Start Highest point End Pass type
(mag) Time Alt. Az. Time Alt. Az. Time Alt. Az.
31 Jul - 00:28:51 10° WNW 00:31:23 20° NNW 00:33:56 10° NNE night (unlit)
31 Jul - 05:22:24 10° NNW 05:25:10 23° NNE 05:27:55 10° E visible
31 Jul - 06:58:49 10° WNW 07:01:56 36° SW 07:05:02 10° SSE daylight
31 Jul - 22:03:04 10° S 22:05:47 24° SE 22:08:33 10° ENE night (unlit)
31 Jul - 23:39:25 10° W 23:42:24 30° NW 23:45:25 10° NNE night (unlit)
01 Aug - 04:33:58 10° NNW 04:36:08 16° NNE 04:38:17 10° ENE visible
01 Aug - 06:09:49 10° NW 06:13:10 72° SW 06:16:30 10° SE daylight
01 Aug - 21:15:32 10° SSE 21:17:08 13° SE 21:18:44 10° E visible
01 Aug - 22:50:14 10° WSW 22:53:29 52° NW 22:56:46 10° NE visible
02 Aug - 00:29:56 10° NW 00:30:50 11° NNW 00:31:44 10° N night (unlit)
02 Aug - 03:45:50 10° N 03:47:02 12° NNE 03:48:15 10° NE visible
02 Aug - 05:21:01 10° NW 05:24:20 59° NE 05:27:39 10° ESE visible
02 Aug - 06:59:24 10° WSW 07:00:39 12° SW 07:01:55 10° SSW daylight
02 Aug - 22:01:19 10° SW 22:04:38 81° SE 22:07:58 10° NE visible
02 Aug - 23:39:44 10° WNW 23:41:43 15° NNW 23:43:43 10° NNE visible
03 Aug - 04:32:20 10° NNW 04:35:25 33° NE 04:38:30 10° ESE visible
03 Aug - 06:09:21 10° WNW 06:11:59 22° SW 06:14:38 10° S daylight
03 Aug - 21:12:43 10° SSW 21:15:50 40° SE 21:18:59 10° ENE visible
03 Aug - 22:50:02 10° W 22:52:40 21° NNW 22:55:18 10° NNE visible
04 Aug - 03:43:46 10° NNW 03:46:26 21° NNE 03:49:05 10° E visible
04 Aug - 05:20:04 10° WNW 05:23:15 41° SW 05:26:25 10° SSE visible
04 Aug - 20:24:32 10° S 20:27:06 21° SE 20:29:42 10° E daylight
04 Aug - 22:00:37 10° WSW 22:03:40 33° NW 22:06:44 10° NNE visible
05 Aug - 02:55:21 10° NNW 02:57:21 15° NNE 02:59:21 10° ENE night (unlit)
05 Aug - 04:31:05 10° NW 04:34:27 83° SW 04:37:48 10° SE visible
05 Aug - 19:37:20 10° SE 19:38:25 11° SE 19:39:31 10° ESE daylight
05 Aug - 21:11:27 10° WSW 21:14:44 59° NW 21:18:02 10° NE visible
05 Aug - 22:50:50 10° NW 22:52:01 11° NNW 22:53:12 10° N visible
06 Aug - 02:07:20 10° N 02:08:13 11° NNE 02:09:06 10° NE night (unlit)
06 Aug - 03:42:16 10° NW 03:45:34 52° NE 03:48:50 10° ESE night (unlit)
06 Aug - 05:20:14 10° W 05:21:56 13° SW 05:23:37 10° SSW night (unlit)
06 Aug - 20:22:34 10° SW 20:25:51 71° SE 20:29:10 10° NE daylight
06 Aug - 22:00:45 10° WNW 22:02:53 16° NNW 22:05:01 10° NNE visible
07 Aug - 02:53:35 10° NNW 02:56:36 30° NE 02:59:36 10° E night (unlit)
07 Aug - 04:30:25 10° WNW 04:33:13 25° SW 04:36:00 10° S night (unlit)
07 Aug - 19:34:00 10° SSW 19:37:03 35° SE 19:40:06 10° ENE daylight
07 Aug - 21:11:05 10° W 21:13:48 23° NNW 21:16:33 10° NNE visible
08 Aug - 02:05:02 10° NNW 02:07:34 20° NNE 02:10:05 10° ENE night (unlit)
08 Aug - 03:41:12 10° WNW 03:44:26 47° SW 03:47:40 10° SSE night (unlit)
08 Aug - 18:45:55 10° S 18:48:17 19° SE 18:50:41 10° E daylight
08 Aug - 20:21:41 10° WSW 20:24:47 37° NW 20:27:55 10° NE daylight
09 Aug - 01:16:38 10° N 01:18:27 14° NNE 01:20:15 10° ENE visible
09 Aug - 02:52:13 10° NW 02:55:35 86° NE 02:58:56 10° SE night (unlit)
09 Aug - 19:32:33 10° SW 19:35:50 68° NW 19:39:09 10° NE daylight
09 Aug - 21:11:39 10° NW 21:13:04 12° NNW 21:14:30 10° N visible
